カタログに戻る

SES 21

運用中通信GEO
NORAD 53961·PAYLOAD·🇱🇺 Luxembourg

打ち上げ Oct 4, 2022 から Cape Canaveral Space Force Station

Loading…

TLE

最新Source: CelesTrak SupGP

元期: Sep 13, 2026, 23:30 UTC

1 53961C 22123B   26256.97916667  .00000170  00000+0  00000+0 0  2568
2 53961   0.0380  41.9881 0001141 115.6890  56.7810  1.00272242    13

AllMySatでSES 21をリアルタイム追跡

Download on the App Store